STARLINK-1972, 47627

Orbit data source: Space-Track

STARLINK-1972, 47627 is a payload satellite owned by SpaceX/Seattle (US) in LEO that was launched on Tue, 16 Feb 2021 UTC via an FALCON 9 launch vehicle from the Air Force Eastern Test Range (AFETR). Payload-class satellites include a variety of spacecraft equipped with specific instruments for various scientific and technological missions. These include communications satellites like Starlink; space stations such as the ISS; scientific satellites like the Hubble; Earth observation satellites from companies like Planet Labs, Umbra, and HawkEye 360; GPS; miniature CubeSats for education and research; and military/defense satellites.

Loading next visibility...
Identifier
47627, 2021-012H
Orbit
LEO
Country
Flag of USUS
Related business
Manufacturer
SpaceX/Seattle
Mission
Partially operational Commercial Communications
Bus & Motor
STARLINK, Unknown motor
Mass
260 kg wet, ~248 kg dry
Launch date (UTC)
2021-02-16 (5 years ago)
Launch vehicle
FALCON 9
Launch site
Air Force Eastern Test Range (AFETR)
Object type
Payload
Rocket body
Debris
Shape & HBR
Box + 1 Pan, 10.1 m
Radar Cross Section
13.562 m², Large (>1 m²)

Expand to show TLE details & history
Last TLE update: 2 days ago

TLE from 2 days ago
0 STARLINK-1972
1 47627U 21012H   26171.28782764  .00053941  00000-0  53793-3 0  9995
2 47627  53.0441 187.8042 0005120 358.5897   1.5102 15.65134100297438
Epoch: 2026-06-20T06:54Z
TLE epoch observation values (Epoch: 2026-06-20T06:54:28.308Z)
Latitude
-0.00001°
Longitude
175.68164°
Altitude
370.299 km
Speed
7.691 km/s
True Right ascension
12h 31m 13s
True Declination
0° 00' 00"
Sunlit
Object was in daylight at epoch
Visualization orbit readout
Latitude
Unknown
Longitude
Unknown
Altitude
Unknown
Speed
Unknown
Apparent Right ascension
Unknown
Apparent Declination
Unknown
Sunlit
N/A
Visualization observer readout
Local Sidereal Time
21:41:07
Azimuth
Unknown
Elevation
Unknown
Doppler factor
Unknown
Orbital elements
Apogee altitude
376.589 km
Perigee altitude
369.676 km
Semi-major axis
6,751.269 km
Eccentricity
0.00051
Inclination
53.0441°
RAAN
187.8042°
Arg. of periapsis
358.5897°
True anomaly
1.51175°
Mean anomaly
1.5102°
Eccentric anomaly
1.51097°
Mean motion
3.9126 °/min
Orbital period
92.01 mins
BSTAR
0.00053793
Loading maneuver chart data...
Computing Atmospheric mass density...

Documentation

Showing up to 5 results
|